Showing default

YUNHAI 2-1C, 43911

Orbit data source: Space-Track

YUNHAI 2-1C, 43911 is a payload satellite owned by CASC (CN) in LEO that was launched on Sat, 29 Dec 2018 UTC via a CHANG ZHENG 2D/YZ-3 launch vehicle from the Jiuquan Satellite Launch Center, China (JSC). Payload-class satellites include a variety of spacecraft equipped with specific instruments for various scientific and technological missions. These include communications satellites like Starlink; space stations such as the ISS; scientific satellites like the Hubble; Earth observation satellites from companies like Planet Labs, Umbra, and HawkEye 360; GPS; miniature CubeSats for education and research; and military/defense satellites.

Loading next visibility...
Identifier
43911, 2018-112C
Orbit
LEO
Country
Flag of CNCN / PRC
Related business
Manufacturer
DFH Shenzhen
Mission
Operational Defense Meteo Radio Occ.
Bus & Motor
YH-2, Unknown motor
Mass
~100 kg wet, ~100 kg dry
Launch date (UTC)
2018-12-29 (7 years ago)
Launch vehicle
CHANG ZHENG 2D/YZ-3
Launch site
Jiuquan Satellite Launch Center, China (JSC)
Object type
Payload
Rocket body
Debris
Shape & HBR
Box + 2 Pan, 0.5 m
Radar Cross Section
0.166 m², Large (>1 m²)

Expand to show TLE details & history
Last TLE update: 17 hours ago

TLE from 17 hours ago
0 YUNHAI 2-1C
1 43911U 18112C   26124.65319965  .00000337  00000-0  19578-3 0  9996
2 43911  50.0106 172.2209 0000582 310.3910  49.6955 14.28980726385569
Epoch: 2026-05-04T15:40Z
TLE epoch observation values (Epoch: 2026-05-04T15:40:36.449Z)
Latitude
0.00001°
Longitude
74.52973°
Altitude
795.402 km
Speed
7.457 km/s
True Right ascension
11h 28m 53s
True Declination
0° 00' 00"
Sunlit
Object was in full shadow at epoch
Visualization orbit readout
Latitude
Unknown
Longitude
Unknown
Altitude
Unknown
Speed
Unknown
Apparent Right ascension
Unknown
Apparent Declination
Unknown
Sunlit
N/A
Visualization observer readout
Local Sidereal Time
16:31:46
Azimuth
Unknown
Elevation
Unknown
Doppler factor
Unknown
Orbital elements
Apogee altitude
796.295 km
Perigee altitude
795.46 km
Semi-major axis
7,174.015 km
Eccentricity
0.00006
Inclination
50.0106°
RAAN
172.2209°
Arg. of periapsis
310.391°
True anomaly
49.70059°
Mean anomaly
49.6955°
Eccentric anomaly
49.69804°
Mean motion
3.5719 °/min
Orbital period
100.79 mins
BSTAR
0.00019578
Loading maneuver chart data...
Computing Atmospheric mass density...
Loading historical data...
Loading historical data...
Loading historical data...
Loading historical data...
Loading historical data...
Loading historical data...
Loading historical data...

Documentation

Showing up to 5 results
|